Location: Unspecified
(0.0000°N, 0.0000°E)
Time: 18:17:14
(UTC+00:00)

Hubble Space Telescope - Pass Details

Date: 13 May 2021
Orbit: 535 x 539 km, 28.5° (Epoch: 14 May)

Event Time Altitude Azimuth Distance (km) Brightness Sun altitude
Exits shadow 04:43:17 37° 260° (W) 827 1.2 -17.3°
Maximum altitude 04:44:43 67° 330° (NNW) 578 0.8 -17.0°
Drops below altitude 10° 04:48:47 10° 52° (NE) 1,771 4.6 -16.0°
Sets 04:51:03 0° 55° (NE) 2,659 5.9 -15.5°
